Torna al catalogo

STARLINK-31450

AttivoComunicazioniVLEO
NORAD 59006·PAYLOAD·🇺🇸 United States

Lanciato Feb 23, 2024 da Vandenberg Space Force Base

Loading…

Prossimi Passaggi (prossime 24 ore)

TLE

AggiornatoSource: CelesTrak SupGP

Epoca: Sep 14, 2026, 14:06 UTC

1 59006C 24036J   26257.58798611  .00017483  00000+0  51665-3 0  2577
2 59006  53.1577 279.4219 0001235  79.4505 245.8907 15.34375572    13

Traccia STARLINK-31450 in tempo reale con AllMySat

Download on the App Store